Regional Weather Roundup
Issued by NWS

Home | Current Version | Previous Version | Graphics & Text | Print | Product List | Glossary On
Versions: 1 2 3 4 5 6 7 8 9 10 11 12 13 14 15 16 17 18 19 20 21 22 23 24 25 26 27 28 29 30 31 32 33 34 35 36 37 38 39 40 41 42 43 44 45 46 47 48 49 50
000
ASUS43 KIND 221159
RWRIN

WEATHER ROUNDUP FOR INDIANA
NATIONAL WEATHER SERVICE INDIANAPOLIS IN
700 AM EST SUN JAN 22 2017

NOTE: "FAIR" INDICATES FEW OR NO CLOUDS BELOW 12,000 FEET WITH NO
SIGNIFICANT WEATHER AND/OR OBSTRUCTIONS TO VISIBILITY.

* - STATION DOES NOT REPORT WEATHER SUCH AS PRECIPITATION OR FOG.

+ - STATION NOT QUALITY CONTROLLED BY THE NATIONAL WEATHER SERVICE.
    USE DATA WITH CAUTION...ESPECIALLY DEWPOINT AND RELATIVE
    HUMIDITY OBSERVATIONS.

INZ001>003-010>013-019-020-221300-
NORTHWEST INDIANA

CITY           SKY/WX    TMP DP  RH WIND       PRES   REMARKS
GARY /AIRPORT/ CLOUDY    41  41 100 NE5       29.60R VSB 1/4
KNOX *+        CLOUDY    37  32  81 CALM      29.58R VSB 1/4
MONTICELLO +   FOG       38  37  95 CALM      29.55S VSB 3/4
6HR MIN TEMP:  37; 6HR MAX TEMP:  46;


$$

LMZ046-743>745-221300-
SOUTHERN LAKE MICHIGAN

STATION/POSITION TIME  TEMP    WIND        PRES    WAVE
                       AIR SEA DIR/SP/G            HT
                 (UTC) (F)     (DEG/KT/KT) (MB)    (FT)
BURNS HARBOR     1140   36      70/  6/  8 1003.0R
MICHIGAN CITY    1130   37      40/  8/  8   N/A

$$

INZ004-005-014>016-021>024-221300-
NORTH CENTRAL INDIANA

CITY           SKY/WX    TMP DP  RH WIND       PRES   REMARKS
GOSHEN         FOG       37  35  92 CALM      29.58R VSB 1/4
6HR MIN TEMP:  36; 6HR MAX TEMP:  39;

SOUTH BEND     FOG       36  36 100 N6        29.59R VSB 1/4
6HR MIN TEMP:  34; 6HR MAX TEMP:  37;


$$

INZ006>009-017-018-025>027-221300-
NORTHEAST INDIANA

CITY           SKY/WX    TMP DP  RH WIND       PRES   REMARKS
ANGOLA *+      CLOUDY    37  34  87 CALM      29.58R VSB 1/4
FORT WAYNE     CLOUDY    49  46  90 CALM      29.58R
6HR MIN TEMP:  47; 6HR MAX TEMP:  54; 6HR PCP:  0.32;

KENDALLVILLE + FOG       42  42 100 CALM      29.59R VSB 1/4

$$

INZ028-029-035-036-043>045-051>053-221300-
WEST CENTRAL INDIANA

CITY           SKY/WX    TMP DP  RH WIND       PRES   REMARKS
CRAWFORDSVL +  CLOUDY    47  47 100 E6        29.55R
6HR MIN TEMP:  42; 6HR MAX TEMP:  51;

LAFAYETTE      FOG       40  40 100 CALM      29.55S VSB 1
6HR MIN TEMP:  40; 6HR MAX TEMP:  50; 6HR PCP:  0.06;

TERRE HAUTE    CLOUDY    47  45  93 NE3       29.53R
6HR MIN TEMP:  40; 6HR MAX TEMP:  48;


$$

INZ030>032-037>040-046>048-054>057-064-065-221300-
CENTRAL INDIANA

CITY           SKY/WX    TMP DP  RH WIND       PRES   REMARKS
COLUMBUS       CLEAR     41  41 100 CALM      29.56
INDIANAPOLIS   MOCLDY    48  47  96 E6        29.55R
6HR MIN TEMP:  47; 6HR MAX TEMP:  52;

-EAGLE CREEK   FOG       45  43  93 NE3       29.55R VSB 1/2
6HR MIN TEMP:  42; 6HR MAX TEMP:  48;

KOKOMO +       CLOUDY    45  44  97 E5        29.57F
6HR MIN TEMP:  45; 6HR MAX TEMP:  54; 6HR PCP:  0.09;

MT COMFORT *+  PTCLDY    46  45  93 E6        29.56S
SHELBYVILLE    CLOUDY    49  46  90 E12       29.56R
6HR MIN TEMP:  45; 6HR MAX TEMP:  52;


$$

INZ033-034-041-042-049-050-058-059-221300-
EAST CENTRAL INDIANA

CITY           SKY/WX    TMP DP  RH WIND       PRES   REMARKS
MUNCIE         CLOUDY    50  46  86 SE8       29.57F
6HR MIN TEMP:  48; 6HR MAX TEMP:  57;


$$

INZ060-061-067>069-081>083-085>088-221300-
SOUTHWEST INDIANA

CITY           SKY/WX    TMP DP  RH WIND       PRES   REMARKS
EVANSVILLE     CLOUDY    51  47  86 N6        29.52S
6HR MIN TEMP:  49; 6HR MAX TEMP:  53;

HUNTINGBURG *+ CLOUDY    50  46  87 NE5       29.53S
6HR MIN TEMP:  48; 6HR MAX TEMP:  54;


$$

INZ062-063-066-070>080-084-089>092-221300-
SOUTH CENTRAL AND SOUTHEAST INDIANA

CITY           SKY/WX    TMP DP  RH WIND       PRES   REMARKS
BLOOMINGTON    PTCLDY    44  41  89 SE3       29.54R FOG
6HR MIN TEMP:  40; 6HR MAX TEMP:  54;

MADISON *+     CLOUDY    45  43  93 NE5       29.58S
SEYMOUR +      CLOUDY    41  41 100 CALM      29.56R

$$




USA.gov is the U.S. government's official web portal to all federal, state and local government web resources and services.